[[{"header":{"parameterUnit":"m.s-1","parameterCategory":1,"la1":30.2991,"la2":30.254,"lo1":-89.0895,"lo2":-89.0444,"dy":0.0017,"dx":0.0017,"nx":28,"ny":28,"refTime":"2025-01-19T09:00:00:Z","depth":0,"parameterNumber":2,"parameterNumberName":"U-component_of_WINDS"},"data":[0,0,0,0,0,0,0,0,0,0,0,0,0,0,0,0,0,0,0,0,0,0,0,0,0,0,0,0,0,0,0,0,0,0,0,0,0,0,0,0,0,0,0,0,0,0,0,0,0,0,0,0,0,0,0,0,0,0,-5.779,-5.7789,0,-5.7756,-5.7756,-5.7755,-5.7567,-5.7562,-5.7558,-5.7554,-5.7525,-5.7529,-5.7532,0,0,0,0,0,0,0,0,0,0,0,0,0,-5.7697,-5.77,-5.779,-5.7789,-5.7789,-5.7756,-5.7755,-5.7755,-5.7568,-5.7562,-5.7557,-5.7551,-5.7524,-5.7528,-5.7533,0,0,0,0,0,0,0,0,0,0,0,0,0,-5.7708,-5.77,-5.779,-5.7691,-5.7682,-5.7756,-5.7755,-5.7755,-5.7569,-5.7562,-5.7555,-5.7549,-5.7523,-5.7528,-5.7533,-5.7701,0,0,-5.7549,-5.7551,0,0,0,0,0,0,0,0,-5.7708,-5.7712,-5.7706,-5.7698,-5.7688,-5.7658,-5.7712,-5.7737,-5.7571,-5.7612,-5.7553,-5.7546,-5.7576,-5.7576,-5.7585,-5.77,-5.7699,-5.755,-5.7553,-5.7555,-5.7556,0,0,0,0,0,0,0,-5.7707,-5.7712,-5.7776,-5.7706,-5.7695,-5.765,-5.7644,-5.7716,-5.7633,-5.7608,-5.7594,-5.7592,-5.7569,-5.758,-5.7583,-5.7698,-5.7549,-5.7554,-5.7557,-5.7559,-5.7948,-5.7955,0,0,0,0,0,0,-5.7719,-5.7713,-5.7778,-5.7775,-5.7681,-5.7658,-5.7651,-5.7675,-5.7631,-5.7618,-5.7598,-5.7584,-5.7575,-5.7577,-5.7581,-5.7774,-5.7555,-5.756,-5.7563,-5.7941,-5.7949,-5.7957,0,0,0,0,0,0,-5.7718,-5.7727,-5.7779,-5.774,-5.7743,-5.7666,-5.7695,-5.7678,-5.7688,-5.7624,-5.7609,-5.7624,-5.757,-5.7574,-5.7672,-5.777,-5.7562,-5.7567,-5.7932,-5.7943,-5.7953,-5.8162,0,0,0,0,0,0,-5.7716,-5.7728,-5.779,-5.7743,-5.7746,-5.787,-5.7701,-5.7682,-5.7697,-5.7678,-5.7644,-5.7632,-5.7565,-5.7665,-5.7677,-5.7774,-5.7571,-5.7923,-5.7937,-5.795,-5.8146,-5.8178,-5.8206,0,0,0,0,0,-5.7714,-5.7852,-5.7794,-5.7803,-5.7822,-5.7876,-5.7878,-5.7795,-5.7706,-5.7768,-5.7726,-5.7633,-5.7758,-5.7677,-5.7689,-5.7788,-5.7917,-5.7933,-5.7949,-5.8132,-5.8172,-5.8205,0,0,0,0,0,0,-5.7916,-5.7844,-5.7779,-5.7906,-5.7898,-5.7844,-5.792,-5.784,-5.7859,-5.7841,-5.7739,-5.7733,-5.7846,-5.7827,-5.7738,-5.7948,-5.7821,-5.784,-5.7956,-5.7994,-5.8023,-5.8026,-5.7575,0,0,0,0,0,-5.7974,-5.8022,-5.7957,-5.8076,-5.8075,-5.7999,-5.8019,-5.7955,-5.7944,-5.7941,-5.7906,-5.79,-5.7937,-5.7964,-5.7995,-5.8142,-5.8132,-5.8216,-5.8246,-5.8271,-5.829,-5.8365,-5.8401,-5.801,-5.801,-5.801,0,0,-5.8097,-5.8064,-5.8101,-5.8115,-5.8102,-5.8155,-5.7997,-5.806,-5.8099,-5.7951,-5.804,-5.8015,-5.8002,-5.8124,-5.8177,-5.8112,-5.8395,-5.8292,-5.8313,-5.8317,-5.8385,-5.8422,-5.8455,-5.8021,-5.8019,-5.8018,0,0,-5.8348,-5.8328,-5.8423,-5.8411,-5.8391,-5.8339,-5.8363,-5.832,-5.8296,-5.8384,-5.8274,-5.8319,-5.8386,-5.838,-5.8386,-5.8633,-5.8548,-5.8646,-5.8804,-5.8878,-5.8909,-5.8936,-5.9023,-5.9056,-5.8664,-5.8664,-5.8665,0,-5.8504,-5.8577,-5.8483,-5.8552,-5.8562,-5.8427,-5.8523,-5.8517,-5.851,-5.8521,-5.8447,-5.8526,-5.8508,-5.8627,-5.8687,-5.8697,-5.872,-5.8649,-5.8912,-5.8938,-5.8961,-5.9044,-5.9077,-5.8676,-5.8675,-5.8674,-5.8673,0,-5.877,-5.8822,-5.8902,-5.8894,-5.8913,-5.8996,-5.8915,-5.8945,-5.888,-5.8836,-5.8927,-5.89,-5.8922,-5.8946,-5.8884,-5.9056,-5.9016,-5.8929,-5.88,-5.9012,-5.9088,-5.9118,-5.8694,-5.8689,-5.8686,-5.8683,0,0,-5.9149,-5.9085,-5.9116,-5.911,-5.9077,-5.9117,-5.9194,-5.9213,-5.924,-5.924,-5.9302,-5.936,-5.9278,-5.9286,-5.9222,-5.9287,-5.9483,-5.9191,-5.9189,-5.9246,-5.967,-5.9736,-5.9774,-5.9426,-5.9432,-5.9436,-5.9671,0,-5.9388,-5.9513,-5.9429,-5.9568,-5.9615,-5.9487,-5.9553,-5.9541,-5.9502,-5.9538,-5.9495,-5.9537,-5.9427,-5.943,-5.9489,-5.9447,-5.9567,-5.9429,-5.9484,-5.9487,-5.9491,-5.9813,-5.9883,-6.0107,-5.97,-5.9705,-5.9709,0,-5.9685,-5.9693,-5.9836,-5.9791,-5.9808,-5.9869,-5.9879,-5.9914,-5.9898,-5.9864,-5.9871,-5.979,-5.9863,-5.9735,-5.9835,-5.9743,-5.976,-5.9744,-5.975,-5.9752,-5.9611,-5.9825,-6.0176,-6.021,-5.9755,-5.9751,-5.9748,0,-5.9946,-5.9994,-6.0084,-6.0084,-6.0034,-6.008,-6.0062,-6.0038,-6.0054,-6.0063,-6.0073,-6.0092,-6.0103,-6.012,-6.0047,-5.996,-6.0156,-6.0022,-6.0131,-6.0134,-6.0179,-6.0177,-6.0538,-6.0191,-6.0191,-6.019,-6.0189,0,-6.0222,-6.0315,-6.0201,-6.0257,-6.0357,-6.026,-6.0362,-6.033,-6.031,-6.0359,-6.025,-6.0299,-6.0198,-6.0237,-6.0181,-6.0272,-6.0278,-6.0254,-6.0238,-6.0263,-6.0266,-6.0274,-6.0256,-6.0199,-6.0197,-6.0195,-6.0194,0,-6.0532,-6.0459,-6.0549,-6.0493,-6.0481,-6.0558,-6.051,-6.0561,-6.0513,-6.0576,-6.0585,-6.0512,-6.0552,-6.0479,-6.0512,-6.0473,-6.06,-6.056,-6.0605,-6.0593,-6.0706,-6.0696,-6.1084,-6.113,-6.0755,-6.0758,-6.0761,0,-6.0713,-6.078,-6.073,-6.0753,-6.074,-6.078,-6.0794,-6.0702,-6.0722,-6.0707,-6.076,-6.0789,-6.0808,-6.0878,-6.0829,-6.0852,-6.0812,-6.0946,-6.0815,-6.0838,-6.0813,-6.081,-6.0816,-6.0974,-6.0978,-6.0982,-6.0985,0,-6.1042,-6.1002,-6.1025,-6.1037,-6.1056,-6.1062,-6.106,-6.1086,-6.0987,-6.1016,-6.1053,-6.1067,-6.1097,-6.1129,-6.114,-6.1123,-6.1039,-6.1026,-6.1053,-6.108,-6.1103,-6.1091,-6.0678,-6.1018,-6.1015,-6.1012,-6.1011,-6.1009,-6.1292,-6.1345,-6.1317,-6.1347,-6.1335,-6.1335,-6.1378,-6.1334,-6.1363,-6.1378,-6.1322,-6.1373,-6.1353,-6.1359,-6.1351,-6.139,-6.133,-6.1369,-6.1379,-6.139,-6.1407,-6.1097,-6.1392,-6.1391,-6.139,-6.1389,-6.1388,0,-6.1615,-6.159,-6.1618,-6.1616,-6.164,-6.1554,-6.1547,-6.1573,-6.1617,-6.1605,-6.1625,-6.1668,-6.1697,-6.1649,-6.1671,-6.1712,-6.1673,-6.172,-6.1717,-6.1714,-6.146,-6.1434,-6.1751,-6.1751,-6.1751,-6.1751,-6.1751,-6.175,-6.1786,-6.187,-6.1826,-6.1904,-6.1878,-6.1924,-6.1927,-6.1926,-6.1916,-6.1967,-6.199,-6.1957,-6.1931,-6.1949,-6.1973,-6.1958,-6.1971,-6.2032,-6.2004,-6.1767,-6.1732,-6.1698,-6.1674,-6.2035,-6.2036,-6.2254,-6.2256,-6.2258]},{"header":{"parameterUnit":"m.s-1","parameterCategory":1,"la1":30.2991,"la2":30.254,"lo1":-89.0895,"lo2":-89.0444,"dy":0.0017,"dx":0.0017,"nx":28,"ny":28,"refTime":"2025-01-19T09:00:00:Z","depth":0,"parameterNumber":3,"parameterNumberName":"V-component_of_WINDS"},"data":[0,0,0,0,0,0,0,0,0,0,0,0,0,0,0,0,0,0,0,0,0,0,0,0,0,0,0,0,0,0,0,0,0,0,0,0,0,0,0,0,0,0,0,0,0,0,0,0,0,0,0,0,0,0,0,0,0,0,-4.5718,-4.5719,0,-4.5771,-4.5772,-4.5772,-4.5727,-4.5725,-4.5723,-4.5721,-4.5773,-4.5777,-4.578,0,0,0,0,0,0,0,0,0,0,0,0,0,-4.5575,-4.5578,-4.5718,-4.5719,-4.572,-4.5771,-4.5772,-4.5773,-4.5727,-4.5725,-4.5722,-4.572,-4.5772,-4.5776,-4.578,0,0,0,0,0,0,0,0,0,0,0,0,0,-4.5633,-4.5579,-4.5718,-4.5703,-4.5702,-4.5771,-4.5772,-4.5773,-4.5727,-4.5725,-4.5722,-4.5719,-4.5771,-4.5776,-4.578,-4.5866,0,0,-4.5795,-4.5797,0,0,0,0,0,0,0,0,-4.563,-4.5639,-4.5705,-4.5704,-4.5704,-4.5739,-4.574,-4.5804,-4.5728,-4.5718,-4.5721,-4.5718,-4.5764,-4.5769,-4.5786,-4.5869,-4.5871,-4.5795,-4.5798,-4.58,-4.5802,0,0,0,0,0,0,0,-4.5626,-4.5636,-4.5739,-4.5706,-4.5705,-4.5693,-4.5698,-4.5752,-4.5756,-4.5718,-4.5715,-4.5722,-4.5763,-4.5781,-4.5786,-4.5872,-4.5795,-4.5799,-4.5802,-4.5804,-4.6025,-4.6028,0,0,0,0,0,0,-4.5624,-4.5633,-4.5738,-4.5741,-4.5659,-4.5698,-4.5703,-4.5731,-4.5756,-4.5757,-4.5725,-4.572,-4.5774,-4.5781,-4.5788,-4.5889,-4.58,-4.5805,-4.5807,-4.6022,-4.6026,-4.6029,0,0,0,0,0,0,-4.5621,-4.5634,-4.5735,-4.5686,-4.5698,-4.5703,-4.5734,-4.5733,-4.5751,-4.576,-4.576,-4.5742,-4.5772,-4.5781,-4.5847,-4.589,-4.5807,-4.5811,-4.6019,-4.6024,-4.6028,-4.6091,0,0,0,0,0,0,-4.5617,-4.5633,-4.5667,-4.5687,-4.5701,-4.5794,-4.5737,-4.5736,-4.5759,-4.5754,-4.5777,-4.5778,-4.5771,-4.584,-4.5851,-4.5895,-4.5815,-4.6015,-4.6021,-4.6026,-4.6085,-4.6098,-4.6108,0,0,0,0,0,-4.5612,-4.5683,-4.5669,-4.5681,-4.5743,-4.5797,-4.5805,-4.5796,-4.5763,-4.5796,-4.5802,-4.5777,-4.5883,-4.5847,-4.586,-4.5905,-4.6012,-4.6019,-4.6026,-4.608,-4.6095,-4.6108,0,0,0,0,0,0,-4.5667,-4.5685,-4.567,-4.5749,-4.5772,-4.5789,-4.5831,-4.5812,-4.5844,-4.5838,-4.5825,-4.583,-4.5899,-4.5908,-4.5868,-4.5988,-4.5942,-4.5952,-4.5979,-4.5994,-4.6005,-4.6001,-4.5819,0,0,0,0,0,-4.5688,-4.5731,-4.5744,-4.5813,-4.5825,-4.5826,-4.5849,-4.584,-4.5863,-4.5873,-4.5883,-4.5906,-4.5944,-4.5969,-4.6005,-4.6087,-4.609,-4.6124,-4.6135,-4.6144,-4.6153,-4.6194,-4.6209,-4.6052,-4.6052,-4.6052,0,0,-4.5733,-4.5748,-4.5776,-4.5824,-4.5841,-4.5885,-4.5835,-4.5883,-4.5915,-4.588,-4.5942,-4.595,-4.5974,-4.6048,-4.608,-4.6058,-4.6197,-4.6153,-4.616,-4.6164,-4.6203,-4.6218,-4.6231,-4.6056,-4.6056,-4.6055,0,0,-4.5836,-4.5852,-4.591,-4.5928,-4.5953,-4.5953,-4.5967,-4.5987,-4.5991,-4.6053,-4.6027,-4.6064,-4.6131,-4.6148,-4.6166,-4.6274,-4.6251,-4.6286,-4.6344,-4.6385,-4.6397,-4.6408,-4.6445,-4.6459,-4.6294,-4.6294,-4.6294,0,-4.5887,-4.5953,-4.5942,-4.5993,-4.6014,-4.5984,-4.6041,-4.6059,-4.6095,-4.6109,-4.6084,-4.6165,-4.6179,-4.6255,-4.6281,-4.6297,-4.6312,-4.6283,-4.6397,-4.6407,-4.6417,-4.6452,-4.6466,-4.6298,-4.6298,-4.6297,-4.6297,0,-4.6014,-4.606,-4.6104,-4.6139,-4.6165,-4.6219,-4.6215,-4.6243,-4.6231,-4.6233,-4.6296,-4.6312,-4.6349,-4.6367,-4.6356,-4.6441,-4.6426,-4.6399,-4.6352,-4.6436,-4.6469,-4.6482,-4.6304,-4.6302,-4.6301,-4.63,0,0,-4.6154,-4.6182,-4.6198,-4.6213,-4.6238,-4.6272,-4.6324,-4.6361,-4.6384,-4.6409,-4.6451,-4.6507,-4.6482,-4.6502,-4.6493,-4.6529,-4.6611,-4.6497,-4.6497,-4.6516,-4.6703,-4.6723,-4.6739,-4.6596,-4.6599,-4.6601,-4.6701,0,-4.6257,-4.6347,-4.6338,-4.6424,-4.6465,-4.6436,-4.648,-4.65,-4.6503,-4.6537,-4.654,-4.6579,-4.6543,-4.6555,-4.6589,-4.6594,-4.6648,-4.6586,-4.6634,-4.6636,-4.6628,-4.6756,-4.6777,-4.6871,-4.6713,-4.6716,-4.6717,0,-4.639,-4.6419,-4.6509,-4.6526,-4.6543,-4.6583,-4.6615,-4.6649,-4.6669,-4.6669,-4.669,-4.6674,-4.6725,-4.6677,-4.6745,-4.6704,-4.6722,-4.6727,-4.673,-4.6734,-4.6681,-4.6762,-4.69,-4.6914,-4.6737,-4.6736,-4.6734,0,-4.6481,-4.6543,-4.6604,-4.6618,-4.664,-4.6668,-4.6679,-4.6697,-4.6719,-4.6747,-4.676,-4.6794,-4.6812,-4.6837,-4.683,-4.6796,-4.6899,-4.6851,-4.6898,-4.6899,-4.6921,-4.692,-4.7064,-4.6935,-4.6935,-4.6934,-4.6934,0,-4.6596,-4.6652,-4.6645,-4.6683,-4.6743,-4.6732,-4.6792,-4.6798,-4.6814,-4.6851,-4.6828,-4.6863,-4.6852,-4.6886,-4.6881,-4.6937,-4.6945,-4.6945,-4.6943,-4.6947,-4.6947,-4.6959,-4.6952,-4.6938,-4.6937,-4.6937,-4.6936,0,-4.6709,-4.6707,-4.6771,-4.6786,-4.6791,-4.6835,-4.6847,-4.6881,-4.6882,-4.6929,-4.6939,-4.694,-4.6979,-4.6974,-4.7018,-4.7014,-4.7083,-4.7074,-4.7077,-4.7074,-4.7121,-4.7116,-4.7277,-4.7297,-4.7156,-4.7157,-4.7159,0,-4.6782,-4.6824,-4.6843,-4.6866,-4.6879,-4.6917,-4.6939,-4.6928,-4.6952,-4.6978,-4.7009,-4.7046,-4.7075,-4.7138,-4.7141,-4.7174,-4.7164,-4.7218,-4.7169,-4.7171,-4.7164,-4.7161,-4.7164,-4.7228,-4.723,-4.7231,-4.7232,0,-4.6912,-4.6909,-4.6942,-4.6974,-4.7001,-4.7026,-4.7049,-4.7069,-4.706,-4.7088,-4.7128,-4.715,-4.7194,-4.723,-4.726,-4.7269,-4.7249,-4.7247,-4.726,-4.7264,-4.7263,-4.7263,-4.7102,-4.7244,-4.7243,-4.7242,-4.7241,-4.7241,-4.7006,-4.7041,-4.706,-4.7097,-4.7113,-4.7134,-4.7167,-4.7171,-4.7204,-4.7239,-4.723,-4.7274,-4.7292,-4.7331,-4.7343,-4.7376,-4.7357,-4.7375,-4.7379,-4.7384,-4.7389,-4.7258,-4.7382,-4.7382,-4.7381,-4.7381,-4.7381,0,-4.7134,-4.7144,-4.7178,-4.721,-4.7239,-4.7218,-4.7241,-4.7266,-4.7305,-4.7324,-4.7352,-4.7396,-4.7431,-4.7437,-4.7469,-4.7495,-4.7486,-4.7504,-4.7501,-4.7503,-4.7405,-4.7391,-4.751,-4.751,-4.751,-4.751,-4.751,-4.751,-4.7204,-4.7261,-4.726,-4.7324,-4.7334,-4.7377,-4.7392,-4.7411,-4.7425,-4.7476,-4.7504,-4.7508,-4.7521,-4.7554,-4.7584,-4.7585,-4.7597,-4.7618,-4.7615,-4.7523,-4.751,-4.7498,-4.7484,-4.7621,-4.7621,-4.771,-4.7711,-4.7711]}]]